Terminal Aerodrome Forecast
Issued by NWS

Home | Current Version | Previous Version | Text Only | Print | Product List | Glossary On
Versions: 1 2 3 4 5 6 7 8 9 10 11 12 13 14 15 16 17 18 19 20 21 22 23 24 25 26 27 28 29 30 31 32 33 34 35 36 37 38 39 40 41 42 43 44 45 46 47 48 49 50
000
FTUS45 KBOU 251737
TAFAPA
TAF
KAPA 251737Z 2518/2618 30018G30KT P6SM SCT100 BKN140
     FM260000 28012G20KT P6SM SCT100 BKN140
     FM260300 26010KT P6SM SCT080 BKN140
     FM260700 07008KT P6SM SCT020 BKN060 PROB30 2609/2614 2SM -SHSN
      BKN020
     FM261400 12006KT P6SM FEW025 BKN060=

USA.gov is the U.S. government's official web portal to all federal, state and local government web resources and services.